Quincy Muni, Quincy, FL, FL

5:47 AM EDT on September 24, 2019 (GMT -0400)
Quincy Muni, Quincy, FL

Weather History for K2J9 - August, 2019

Change the Weather History Date:

Friday, August 16, 2019

  Actual Average (KTLH) Record (KTLH)
Temperature  
Mean Temperature 85 °F 82 °F  
Max Temperature 95 °F 92 °F 101 °F (1918)
Min Temperature 75 °F 72 °F 63 °F (2011)
Degree Days  
Heating Degree Days 0    
Month to date heating degree days  
Since 1 June heating degree days  
Since 1 July heating degree days  
Cooling Degree Days 20    
Month to date cooling degree days  
Year to date cooling degree days  
Since 1 June cooling degree days  
Growing Degree Days 35 (Base 50)    
Moisture  
Dew Point 75 °F    
Average Humidity 82    
Maximum Humidity 100    
Minimum Humidity 46    
Precipitation  
Precipitation 0.00 in 0.24 in 2.40 in (1914)
Month to date precipitation 4.13  
Year to date precipitation 40.69  
Sea Level Pressure  
Sea Level Pressure 29.96 in    
Wind  
Wind Speed 2 mph (ESE)    
Max Wind Speed 8 mph    
Max Gust Speed 16 mph    
Visibility 8 miles    
Events Fog , Rain    
T = Trace of Precipitation, MM = Missing Value Source: NWS Daily Summary

Daily Weather History Graph

Daily Weather History Graph

Search for Another Location

Airport or City:

Astronomy

Aug. 16, 2019 Rise Set
Actual Time 7:05 AM EDT 8:19 PM EDT
Civil Twilight 6:39 AM EDT 8:44 PM EDT
Nautical Twilight 6:09 AM EDT 9:14 PM EDT
Astronomical Twilight 5:38 AM EDT 9:45 PM EDT
Moon 9:20 PM EDT (8/16) 7:56 AM EDT (8/16)
Length of Visible Light 14h 04m
Length of Day
13h 14m
Full, 99% of the Moon is Illuminated
Aug 16
Full
Aug 23
Last Quarter
Aug 30
New
Sep 5
First Quarter
Sep 14
Full

Hourly Weather History & Observations

Time (EDT) Temp. Heat Index Dew Point Humidity Pressure Visibility Wind Dir Wind Speed Gust Speed Precip Events Conditions
12:15 AM 75.2 °F - 75.2 °F 100% 29.96 in 10.0 mi WNW 3.5 mph - N/A   Partly Cloudy
12:35 AM 75.2 °F - 75.2 °F 100% 29.96 in 10.0 mi Calm Calm - N/A   Mostly Cloudy
12:55 AM 75.2 °F - 75.2 °F 100% 29.96 in 10.0 mi Calm Calm - N/A   Overcast
1:15 AM 75.2 °F - 75.2 °F 100% 29.96 in 10.0 mi Calm Calm - N/A   Overcast
1:35 AM 75.2 °F - 75.2 °F 100% 29.96 in 10.0 mi SE 5.8 mph - N/A   Overcast
1:55 AM 75.2 °F - 75.2 °F 100% 29.96 in 5.0 mi WNW 5.8 mph - N/A Rain Light Rain
2:15 AM 75.2 °F - 75.2 °F 100% 29.95 in 6.0 mi South 5.8 mph - N/A   Light Drizzle
2:35 AM 75.2 °F - 75.2 °F 100% 29.95 in 9.0 mi Calm Calm - N/A   Overcast
2:55 AM 75.2 °F - 75.2 °F 100% 29.96 in 7.0 mi NNE 4.6 mph - N/A   Overcast
3:15 AM 75.2 °F - 75.2 °F 100% 29.95 in 9.0 mi NNE 3.5 mph - N/A   Overcast
3:35 AM 75.2 °F - 75.2 °F 100% 29.95 in 10.0 mi Calm Calm - N/A   Overcast
3:55 AM 75.2 °F - 75.2 °F 100% 29.94 in 7.0 mi Calm Calm - N/A   Overcast
4:15 AM 75.2 °F - 75.2 °F 100% 29.94 in 7.0 mi Calm Calm - N/A   Overcast
4:35 AM 75.2 °F - 75.2 °F 100% 29.94 in 6.0 mi Calm Calm - N/A   Overcast
4:55 AM 75.2 °F - 75.2 °F 100% 29.95 in 1.2 mi Calm Calm - N/A   Overcast
5:15 AM 75.2 °F - 75.2 °F 100% 29.94 in 3.0 mi Calm Calm - N/A   Overcast
5:35 AM 75.2 °F - 75.2 °F 100% 29.94 in 3.0 mi Calm Calm - N/A   Overcast
5:55 AM 75.2 °F - 75.2 °F 100% 29.94 in 0.5 mi Calm Calm - N/A Fog Fog
6:15 AM 75.2 °F - 75.2 °F 100% 29.95 in 0.5 mi Calm Calm - N/A Fog Fog
6:35 AM 75.2 °F - 75.2 °F 100% 29.95 in 0.2 mi Calm Calm - N/A Fog Fog
6:55 AM 75.2 °F - 75.2 °F 100% 29.95 in 0.2 mi Calm Calm - N/A Fog Fog
7:15 AM 75.2 °F - 75.2 °F 100% 29.96 in 0.2 mi Calm Calm - N/A Fog Fog
7:35 AM 75.2 °F - 75.2 °F 100% 29.97 in 0.5 mi Calm Calm - N/A Fog Fog
7:55 AM 75.2 °F - 75.2 °F 100% 29.97 in 6.0 mi Calm Calm - N/A   Overcast
8:15 AM 75.2 °F - 75.2 °F 100% 29.97 in 9.0 mi Calm Calm - N/A   Overcast
8:35 AM 75.2 °F - 75.2 °F 100% 29.97 in 9.0 mi Calm Calm - N/A   Mostly Cloudy
8:55 AM 78.8 °F - 78.8 °F 100% 29.97 in 10.0 mi Calm Calm - N/A   Partly Cloudy
9:15 AM 78.8 °F - 75.2 °F 89% 29.97 in 10.0 mi Calm Calm - N/A   Clear
9:35 AM 80.6 °F 86.2 °F 75.2 °F 84% 29.98 in 10.0 mi Calm Calm - N/A   Clear
9:55 AM 82.4 °F 90.9 °F 77.0 °F 84% 29.98 in 10.0 mi Calm Calm - N/A   Clear
10:15 AM 82.4 °F 90.9 °F 77.0 °F 84% 29.98 in 10.0 mi Calm Calm - N/A   Scattered Clouds
10:35 AM 82.4 °F 89.5 °F 75.2 °F 79% 29.99 in 10.0 mi NNE 3.5 mph - N/A   Mostly Cloudy
10:55 AM 84.2 °F 94.1 °F 77.0 °F 79% 29.99 in 10.0 mi NE 3.5 mph - N/A   Mostly Cloudy
11:15 AM 84.2 °F 94.1 °F 77.0 °F 79% 30.00 in 10.0 mi Calm Calm - N/A   Mostly Cloudy
11:55 AM 86.0 °F 96.9 °F 77.0 °F 74% 30.00 in 10.0 mi ENE 4.6 mph - N/A   Partly Cloudy
12:15 PM 87.8 °F 99.7 °F 77.0 °F 70% 30.00 in 10.0 mi Calm Calm - N/A   Clear
12:35 PM 87.8 °F 99.7 °F 77.0 °F 70% 29.99 in 10.0 mi Variable 4.6 mph - N/A   Partly Cloudy
12:55 PM 87.8 °F 99.7 °F 77.0 °F 70% 29.99 in 10.0 mi NE 6.9 mph - N/A   Clear
1:15 PM 89.6 °F 102.2 °F 77.0 °F 66% 29.98 in 10.0 mi Calm Calm - N/A   Clear
1:35 PM 89.6 °F 102.2 °F 77.0 °F 66% 29.97 in 10.0 mi Variable 4.6 mph - N/A   Scattered Clouds
1:55 PM 91.4 °F 105.1 °F 77.0 °F 63% 29.96 in 10.0 mi Variable 4.6 mph - N/A   Partly Cloudy
2:15 PM 91.4 °F 105.1 °F 77.0 °F 63% 29.96 in 10.0 mi Calm Calm - N/A   Partly Cloudy
2:35 PM 91.4 °F 105.1 °F 77.0 °F 63% 29.96 in 10.0 mi NE 4.6 mph - N/A   Scattered Clouds
2:55 PM 93.2 °F 105.0 °F 75.2 °F 56% 29.96 in 10.0 mi Calm Calm - N/A   Scattered Clouds
3:15 PM 93.2 °F 105.0 °F 75.2 °F 56% 29.95 in 10.0 mi Calm Calm - N/A   Partly Cloudy
3:35 PM 93.2 °F 102.4 °F 73.4 °F 52% 29.94 in 10.0 mi Calm Calm - N/A   Clear
3:55 PM 93.2 °F 105.0 °F 75.2 °F 56% 29.93 in 10.0 mi Calm Calm - N/A   Scattered Clouds
4:15 PM 91.4 °F 98.4 °F 71.6 °F 52% 29.93 in 10.0 mi Calm Calm - N/A   Partly Cloudy
4:35 PM 93.2 °F 105.0 °F 75.2 °F 56% 29.92 in 10.0 mi Calm Calm - N/A   Partly Cloudy
4:55 PM 95.0 °F 103.2 °F 71.6 °F 47% 29.92 in 10.0 mi Variable 4.6 mph - N/A   Clear
5:15 PM 93.2 °F 98.8 °F 69.8 °F 46% 29.91 in 10.0 mi North 4.6 mph - N/A   Partly Cloudy
5:55 PM 93.2 °F 102.4 °F 73.4 °F 52% 29.91 in 10.0 mi Calm Calm - N/A   Clear
6:15 PM 91.4 °F 98.4 °F 71.6 °F 52% 29.92 in 10.0 mi Calm Calm - N/A   Clear
6:35 PM 91.4 °F 105.1 °F 77.0 °F 63% 29.91 in 10.0 mi Calm Calm - N/A   Clear
6:55 PM 87.8 °F 95.6 °F 73.4 °F 62% 29.93 in 10.0 mi SE 6.9 mph 16.1 mph N/A   Clear
7:15 PM 86.0 °F 93.4 °F 73.4 °F 66% 29.93 in 10.0 mi East 6.9 mph - N/A   Partly Cloudy
7:35 PM 84.2 °F 90.9 °F 73.4 °F 70% 29.94 in 10.0 mi SE 5.8 mph - N/A   Partly Cloudy
7:55 PM 82.4 °F 88.2 °F 73.4 °F 74% 29.95 in 10.0 mi SSE 8.1 mph - N/A   Clear
8:15 PM 80.6 °F 85.4 °F 73.4 °F 79% 29.95 in 10.0 mi SSE 5.8 mph 11.5 mph N/A   Clear
8:35 PM 80.6 °F 85.4 °F 73.4 °F 79% 29.95 in 10.0 mi SE 3.5 mph - N/A   Partly Cloudy
8:55 PM 78.8 °F - 73.4 °F 83% 29.96 in 10.0 mi Calm Calm - N/A   Mostly Cloudy
9:15 PM 78.8 °F - 71.6 °F 78% 29.96 in 10.0 mi South 4.6 mph - N/A   Scattered Clouds
9:35 PM 77.0 °F - 71.6 °F 83% 29.97 in 10.0 mi SW 4.6 mph - N/A   Scattered Clouds
9:55 PM 77.0 °F - 71.6 °F 83% 29.97 in 10.0 mi Calm Calm - N/A   Clear
10:15 PM 77.0 °F - 71.6 °F 83% 29.99 in 10.0 mi SW 4.6 mph - N/A   Scattered Clouds
10:35 PM 77.0 °F - 71.6 °F 83% 30.00 in 10.0 mi Calm Calm - N/A   Partly Cloudy
10:55 PM 77.0 °F - 71.6 °F 83% 30.00 in 10.0 mi Calm Calm - N/A   Mostly Cloudy
11:15 PM 75.2 °F - 73.4 °F 94% 30.00 in 10.0 mi Calm Calm - N/A   Partly Cloudy
11:35 PM 75.2 °F - 73.4 °F 94% 29.99 in 10.0 mi Calm Calm - N/A   Clear
11:55 PM 75.2 °F - 73.4 °F 94% 30.00 in 10.0 mi Calm Calm - N/A   Clear